EW6338 Weather Reports


time (UTC)temp
C
wind
direction
speed
KPH
gust
KPH
rain 1hr
cm
rain 24hr
cm
rain mn
cm
humidity
%
barometer
mb
20260507084500 8 47 0.0 4.8 0.00 0.61 0.00 90 1005.6
20260507083059 8 4 0.0 1.6 0.00 0.61 0.00 91 1005.2
20260507081601 9 93 0.0 3.2 0.00 0.61 0.00 90 1005.4
20260507080112 9 61 0.0 3.2 0.00 0.61 0.00 90 1005.7
20260507074557 10 60 0.0 3.2 0.00 0.61 0.00 90 1005.7
20260507073051 10 298 0.0 1.6 0.00 0.61 0.00 91 1005.2
20260507071550 10 262 0.0 1.6 0.00 0.61 0.00 91 1004.9
20260507070058 10 26 0.0 3.2 0.00 0.61 0.00 91 1004.9
20260507064620 10 43 0.0 4.8 0.00 0.61 0.00 91 1004.8
20260507063052 10 5 0.0 1.6 0.00 0.61 0.00 92 1004.6
20260507061546 10 261 0.0 3.2 0.00 0.61 0.00 93 1004.7
20260507060106 10 59 0.0 4.8 0.00 0.61 0.00 94 1004.8
20260507054547 11 68 0.0 4.8 0.00 0.61 0.00 95 1005.1
20260507053041 11 25 0.0 3.2 0.00 0.61 0.00 95 1004.8
20260507051551 11 300 0.0 6.4 0.00 0.61 0.00 95 1005.0
20260507050044 11 5 0.0 6.4 0.00 0.61 0.00 95 1005.2
20260507044533 12 13 0.0 3.2 0.00 0.61 0.00 95 1004.8
20260507043029 13 264 1.6 8.0 0.00 0.61 0.00 95 1004.7
20260507041528 13 50 0.0 6.4 0.00 0.61 0.00 96 1004.9
20260507040024 14 311 0.0 1.6 0.00 0.61 0.00 96 1004.7
20260507034523 14 270 0.0 9.7 0.00 0.61 0.61 96 1004.4
20260507033021 15 4 1.6 16.1 0.00 0.61 0.61 96 1004.1
20260507031518 15 150 1.6 8.0 0.00 0.61 0.61 96 1003.8
20260507030027 15 210 0.0 6.4 0.00 0.61 0.61 96 1003.7
20260507024524 15 173 0.0 4.8 0.00 0.61 0.61 96 1003.6
20260507023017 15 142 0.0 3.2 0.00 0.61 0.61 96 1003.8
20260507021517 15 259 1.6 11.3 0.00 0.61 0.61 96 1003.7
20260507020015 14 210 0.0 8.0 0.00 0.61 0.61 96 1003.7
20260507014515 14 283 1.6 6.4 0.00 0.61 0.61 96 1003.9
20260507013016 14 222 1.6 8.0 0.00 0.61 0.61 96 1004.0
20260507011514 15 196 0.0 8.0 0.00 0.61 0.61 96 1004.1
20260507010015 15 258 0.0 6.4 0.00 0.61 0.61 96 1004.1
20260507004515 15 255 1.6 14.5 0.00 0.61 0.61 96 1004.0
20260507003011 15 212 1.6 8.0 0.00 0.61 0.61 96 1003.9
20260507001516 15 94 0.0 6.4 0.03 0.61 0.61 96 1003.8
20260507000010 15 120 0.0 6.4 0.05 0.61 0.61 96 1003.7
20260506234510 15 210 0.0 6.4 0.10 0.61 0.61 96 1003.7
20260506233012 15 228 1.6 11.3 0.15 0.61 0.61 96 1003.7
20260506231507 15 287 0.0 4.8 0.15 0.58 0.58 95 1003.9
20260506230014 15 176 0.0 6.4 0.13 0.53 0.53 95 1004.1
20260506224504 15 221 3.2 12.9 0.08 0.48 0.48 95 1004.1
20260506223001 15 235 1.6 12.9 0.08 0.46 0.46 95 1004.2
20260506221631 15 146 0.0 12.9 0.08 0.43 0.43 95 1004.1
20260506220132 15 267 1.6 11.3 0.10 0.41 0.41 94 1004.3
20260506214600 15 234 0.0 4.8 0.13 0.41 0.41 94 1004.4
20260506213109 15 189 0.0 3.2 0.15 0.38 0.38 94 1004.8
20260506211558 15 202 0.0 6.4 0.20 0.36 0.36 93 1004.8
20260506210056 16 175 1.6 9.7 0.20 0.30 0.30 92 1004.9
20260506204556 16 226 0.0 6.4 0.20 0.28 0.28 91 1005.0
20260506203049 16 213 0.0 14.5 0.18 0.23 0.23 90 1004.8
20260506201550 16 217 0.0 4.8 0.13 0.15 0.15 88 1004.9
20260506200047 17 265 1.6 12.9 0.10 0.10 0.10 87 1004.8
20260506194546 17 235 0.0 8.0 0.08 0.08 0.08 85 1004.8
20260506193044 18 284 0.0 12.9 0.05 0.05 0.05 81 1004.9
20260506191549 18 160 0.0 9.7 0.03 0.03 0.03 76 1005.0
20260506190043 20 238 0.0 12.9 0.00 0.00 0.00 71 1005.1
20260506184553 21 101 0.0 6.4 0.00 0.00 0.00 68 1004.9
20260506183041 21 287 1.6 11.3 0.00 0.00 0.00 64 1004.9
20260506181542 21 181 4.8 19.3 0.00 0.00 0.00 63 1004.9
20260506180041 22 229 1.6 19.3 0.00 0.00 0.00 63 1005.2
20260506174537 22 258 3.2 14.5 0.00 0.00 0.00 62 1005.4
20260506173044 22 148 4.8 19.3 0.00 0.00 0.00 61 1005.2
20260506171548 22 213 3.2 19.3 0.00 0.00 0.00 63 1005.3
20260506170038 22 128 1.6 8.0 0.00 0.00 0.00 62 1005.6
20260506164531 22 184 3.2 14.5 0.00 0.00 0.00 60 1005.7
20260506163034 22 160 6.4 14.5 0.00 0.00 0.00 62 1005.9
20260506161525 22 287 0.0 11.3 0.00 0.00 0.00 63 1006.2
20260506160023 21 121 1.6 8.0 0.00 0.00 0.00 65 1006.5
20260506154520 21 233 1.6 9.7 0.00 0.00 0.00 66 1006.8
20260506153017 21 141 0.0 19.3 0.00 0.00 0.00 67 1007.0
20260506151522 21 266 1.6 17.7 0.00 0.00 0.00 66 1007.2
20260506150016 21 250 3.2 12.9 0.00 0.00 0.00 67 1007.4
20260506144516 21 139 3.2 11.3 0.00 0.00 0.00 67 1007.2
20260506143012 21 288 3.2 17.7 0.00 0.00 0.00 69 1007.1
20260506141509 20 265 1.6 11.3 0.00 0.00 0.00 72 1007.1
20260506140015 19 99 1.6 19.3 0.00 0.00 0.00 73 1007.3
20260506134504 19 299 4.8 16.1 0.00 0.00 0.00 74 1007.4
20260506133002 18 255 3.2 11.3 0.00 0.00 0.00 75 1007.8
20260506131617 18 226 3.2 9.7 0.00 0.00 0.00 76 1007.7
20260506130101 18 351 1.6 14.5 0.00 0.00 0.00 76 1007.7
20260506124558 18 278 4.8 17.7 0.00 0.00 0.00 76 1007.6
20260506123056 17 274 0.0 9.7 0.00 0.00 0.00 78 1007.9
20260506121557 17 156 0.0 6.4 0.00 0.00 0.00 79 1007.7
20260506120055 17 155 3.2 9.7 0.00 0.00 0.00 79 1008.0
20260506114555 17 19 0.0 9.7 0.00 0.00 0.00 80 1008.1
20260506113051 16 260 3.2 12.9 0.00 0.00 0.00 80 1008.3
20260506111551 16 261 0.0 9.7 0.00 0.00 0.00 81 1008.0
20260506110050 16 86 0.0 6.4 0.00 0.00 0.00 82 1008.2
20260506104554 16 199 1.6 6.4 0.00 0.00 0.00 81 1008.2
20260506103052 16 229 1.6 8.0 0.00 0.00 0.00 81 1008.2
20260506101547 16 219 0.0 6.4 0.00 0.00 0.00 81 1008.2
20260506094546 16 173 0.0 4.8 0.00 0.00 0.00 80 1007.9
20260506093043 16 281 0.0 6.4 0.00 0.00 0.00 80 1008.1
20260506091542 16 137 1.6 12.9 0.00 0.00 0.00 79 1008.1
20260506090040 16 158 0.0 8.0 0.00 0.00 0.00 78 1008.1